Wind_Speed
20 20 19 19 18 17 16 16 15 14 12 12 12 12 11 11 11 10 10 9 9 9 9 8 8 8 7 7 7 6 6 6 7 7 7 8 8 7 7 8 8 7 7 7
22 21 21 21 19 18 17 17 16 15 14 14 14 13 12 12 12 12 11 11 11 10 10 10 9 9 9 8 8 8 7 8 7 7 8 8 9 9 9 8 8 8 8 9
24 23 23 23 20 20 18 18 18 17 16 15 15 14 14 13 13 13 13 13 12 12 11 11 10 10 10 10 9 9 9 8 8 8 8 9 9 9 9 9 9 10 10 10
26 26 26 24 22 21 20 20 20 19 17 16 15 15 15 15 15 14 14 14 14 13 12 12 11 11 11 11 11 10 10 10 9 9 10 9 9 9 9 9 10 11 11 11
27 27 27 25 24 23 22 21 20 20 19 17 16 15 15 16 16 15 15 14 14 14 13 13 12 12 12 12 12 11 11 11 11 11 10 10 10 10 10 10 11 11 11 12
27 28 28 26 25 24 24 23 21 21 20 18 17 17 16 17 17 17 16 16 15 14 14 14 13 13 13 13 13 13 13 12 12 12 12 12 11 12 12 12 12 12 12 13
27 28 28 25 24 24 24 23 22 22 21 20 19 19 18 18 18 18 18 18 17 16 16 15 15 15 15 14 14 14 14 14 14 13 13 14 14 14 13 14 14 14 14 14
28 29 27 25 25 25 25 25 24 24 23 22 22 21 20 20 20 19 19 19 19 18 17 17 17 16 16 16 15 16 16 15 15 15 15 15 16 16 16 16 16 16 16 16
29 29 27 27 26 26 26 26 25 25 25 24 24 23 22 21 21 21 21 21 20 20 19 19 19 18 17 17 16 16 17 17 17 17 17 18 18 18 18 18 18 18 18 18
30 30 29 28 28 28 28 27 26 26 26 25 25 25 25 24 23 23 23 23 22 21 21 20 20 19 19 18 19 19 19 19 19 19 19 19 19 19 20 20 20 20 20 20
31 30 30 29 29 29 29 29 28 27 27 27 27 26 25 25 25 25 25 24 24 23 22 21 21 21 20 20 21 21 21 21 21 21 21 21 21 21 21 22 22 22 22 22
31 30 31 31 31 30 30 30 29 29 29 28 28 28 27 27 27 26 26 26 25 24 24 23 23 22 22 22 22 22 22 22 22 22 23 23 23 22 23 24 23 23 23 23
31 30 31 31 31 31 31 30 31 30 30 30 29 29 28 28 27 28 28 28 27 26 26 25 25 24 23 23 24 24 24 24 24 24 24 24 24 24 24 25 25 25 25 25
31 31 31 31 31 31 31 30 30 31 31 31 29 29 29 28 28 28 28 28 28 28 28 27 26 26 25 25 25 25 25 25 25 25 25 25 25 25 26 26 26 26 26 26
31 31 31 30 30 31 31 30 30 31 32 31 30 30 30 29 29 29 29 29 29 28 28 28 28 27 27 26 26 26 26 26 26 26 26 26 26 27 27 27 27 27 27 27
31 31 30 30 30 30 31 31 31 31 31 31 32 31 31 30 29 30 29 29 29 29 28 29 28 28 27 27 27 27 28 28 27 27 27 27 28 28 28 28 29 29 29 29
30 30 30 30 30 30 31 32 31 30 30 31 31 31 32 31 30 30 29 29 29 29 29 29 29 29 28 28 28 28 28 28 28 28 29 29 29 29 29 29 29 29 29 29
29 29 29 29 29 31 31 31 31 31 31 32 32 32 32 32 32 31 31 30 30 31 30 30 31 31 30 30 30 29 29 29 29 30 30 29 29 29 29 29 29 29 29 30
29 28 29 29 29 30 29 29 30 31 32 33 33 34 33 33 32 32 32 32 32 31 31 32 31 31 31 31 30 30 30 30 30 30 30 30 30 29 29 29 29 29 29 30
27 27 27 28 29 29 29 29 30 31 32 33 33 33 34 34 33 33 33 33 32 32 31 32 32 32 32 31 31 31 30 30 30 30 30 30 30 30 30 30 30 30 31 32
27 27 27 27 28 28 29 29 30 31 32 32 33 33 33 34 34 34 34 33 33 32 32 33 33 33 33 32 32 32 31 31 31 31 31 31 31 31 31 31 31 32 32 32
27 27 27 27 28 29 30 30 30 30 31 32 32 31 32 32 33 34 34 33 33 33 32 33 33 33 33 33 33 33 33 32 32 32 32 32 31 31 32 32 32 32 32 32
28 28 27 27 27 28 29 29 29 30 31 31 31 32 32 32 32 33 32 32 32 32 32 32 33 34 34 34 33 33 33 33 33 33 32 32 32 32 32 32 32 32 32 32
27 27 27 27 27 27 28 28 28 28 29 30 31 31 31 31 31 31 31 32 33 33 32 32 32 33 33 34 34 34 34 33 33 33 33 33 33 33 33 33 32 32 32 32
27 27 27 27 28 27 28 28 29 29 29 29 30 30 32 32 31 31 31 31 33 33 33 32 32 32 33 33 34 34 34 34 34 34 33 33 33 33 33 33 33 32 32 32
26 26 26 26 26 27 27 28 28 28 29 29 30 30 32 32 32 32 32 32 33 33 33 32 32 32 33 33 34 33 33 33 33 33 33 33 33 33 33 33 33 33 33 32
26 26 26 25 26 26 27 27 27 28 29 29 30 30 31 31 31 32 33 34 34 34 33 32 32 32 32 33 33 33 33 33 33 34 34 34 33 33 33 33 33 32 32 32
Wind_Direction
251 254 255 255 256 257 259 262 263 264 263 262 266 268 268 268 269 273 275 277 281 283 284 285 286 280 273 273 272 270 265 260 254 254 257 261 263 261 266 271 269 271 273 275
250 252 254 255 255 256 258 260 261 262 261 261 263 261 261 262 263 267 270 273 276 280 281 280 280 276 268 268 268 264 264 258 257 257 260 262 261 262 268 269 270 271 271 273
252 253 254 254 255 256 257 258 259 261 262 261 259 257 258 259 260 263 263 267 272 277 277 277 275 271 266 265 263 260 260 264 263 258 261 263 263 264 265 267 269 272 274 279
254 253 253 254 254 254 255 257 257 259 260 259 256 255 257 259 260 262 263 266 268 272 274 272 272 270 267 264 261 260 259 261 262 264 265 265 264 265 268 268 272 272 273 279
255 255 255 253 253 254 255 256 257 259 259 258 256 254 257 260 262 263 263 265 267 267 270 270 270 268 266 263 260 259 259 261 261 263 264 263 261 265 267 271 274 275 278 280
255 256 257 255 253 253 255 255 256 257 257 256 254 255 256 259 260 261 262 262 262 263 267 269 270 268 265 261 259 258 257 259 260 260 258 258 261 265 270 273 274 277 278 279
255 256 256 255 255 253 253 254 254 256 256 255 254 255 255 256 258 260 261 262 261 262 265 266 268 267 265 261 258 257 256 255 255 257 257 257 261 266 269 273 275 278 278 279
253 255 257 256 256 253 252 252 253 254 254 254 253 253 253 255 256 257 259 261 260 261 263 264 265 265 265 262 259 257 256 255 255 258 261 262 264 265 268 272 275 276 278 279
252 254 255 255 255 254 252 252 253 254 253 252 252 252 253 255 256 256 258 259 259 260 260 262 264 263 263 260 258 257 257 257 258 259 260 263 265 266 270 273 275 274 274 277
253 253 254 255 255 254 252 251 253 254 252 251 252 253 254 255 257 258 258 257 257 258 258 260 262 262 260 258 256 257 258 258 259 260 262 265 266 267 269 271 273 274 274 276
254 254 254 254 254 255 252 250 250 251 252 252 252 253 254 255 257 257 257 255 256 255 255 257 260 261 260 258 258 258 259 258 259 261 263 265 267 269 270 271 272 274 275 277
254 254 254 254 253 253 252 250 249 250 251 252 252 253 254 254 256 257 257 257 256 254 253 254 256 258 258 258 259 259 259 258 259 261 264 266 267 268 270 272 273 274 277 279
253 253 254 254 253 251 251 250 249 250 251 252 253 253 253 254 256 255 256 257 256 254 252 253 254 256 258 259 259 260 260 261 263 264 265 266 268 269 272 273 274 275 277 278
252 253 254 255 254 252 251 251 251 251 252 253 252 252 252 254 255 255 256 256 255 254 253 253 254 256 258 259 260 262 262 263 265 266 265 267 269 271 272 274 275 275 277 278
251 252 254 255 255 253 253 252 252 251 251 252 253 252 251 253 255 255 255 255 255 255 254 253 253 255 258 259 261 263 264 265 266 265 265 268 270 270 272 273 274 276 277 277
251 252 253 253 253 253 252 252 252 252 251 251 251 251 250 250 253 254 255 255 254 254 254 253 253 255 258 261 262 263 265 266 266 266 268 269 269 270 272 274 275 276 278 278
252 253 253 253 253 253 252 252 252 251 250 250 250 251 250 251 252 252 252 254 254 253 253 253 254 256 258 260 262 264 265 266 266 268 269 269 269 271 273 275 276 277 278 279
254 254 254 254 255 254 253 251 250 250 250 251 251 251 251 250 251 251 251 253 255 254 255 256 257 258 259 261 263 264 265 267 268 270 270 270 270 270 271 274 275 277 277 279
255 255 255 254 254 254 252 250 249 249 250 250 250 250 251 251 251 251 252 253 254 255 256 257 258 258 259 261 262 263 266 268 269 269 270 271 271 272 273 274 276 277 278 280
255 255 254 253 253 252 250 249 249 249 250 250 250 251 251 251 251 252 252 253 254 257 257 257 257 258 259 260 261 263 265 267 269 271 271 272 273 274 274 275 276 277 278 280
254 255 255 254 253 251 251 251 251 251 251 251 251 252 252 252 252 252 252 253 254 256 256 256 256 258 259 260 261 263 265 266 268 270 271 273 274 275 275 276 277 278 279 280
256 257 256 255 254 253 253 253 253 253 252 253 253 253 254 254 254 253 254 254 254 255 256 256 257 258 259 260 261 263 264 266 268 269 271 273 275 275 276 277 278 279 280 280
257 258 258 257 256 257 256 255 254 254 254 253 254 256 257 256 255 254 255 254 253 254 255 256 258 259 260 260 261 262 263 265 267 269 271 273 275 276 276 277 278 279 279 280
258 258 259 260 258 258 258 256 256 257 256 255 256 256 257 258 257 256 255 254 253 253 255 256 258 260 261 261 262 262 263 264 266 269 270 273 274 276 277 278 278 278 279 280
259 260 261 261 260 259 258 258 258 257 255 256 256 257 258 258 257 257 257 256 256 256 257 258 260 261 261 261 262 263 264 265 267 269 271 272 273 275 277 277 278 278 279 279
260 262 262 261 261 258 258 259 259 257 256 256 257 258 257 257 258 258 259 259 259 259 259 259 260 261 262 263 264 264 266 266 267 269 270 271 272 274 276 277 278 277 277 278
260 262 264 263 260 259 260 261 259 258 258 259 259 259 259 258 259 259 260 260 260 260 260 260 261 261 263 264 265 266 267 268 268 269 270 271 272 274 275 276 277 277 276 277
Height
5828 5829 5830 5831 5833 5834 5835 5835 5836 5838 5838 5838 5838 5838 5838 5837 5837 5838 5838 5837 5837 5837 5836 5836 5836 5836 5836 5835 5835 5835 5835 5835 5835 5836 5836 5836 5837 5837 5837 5837 5837 5837 5837 5837
5822 5823 5824 5825 5827 5829 5830 5830 5831 5832 5834 5834 5834 5834 5834 5834 5834 5834 5835 5835 5835 5834 5834 5833 5833 5833 5833 5833 5833 5833 5833 5833 5833 5834 5834 5834 5835 5835 5835 5835 5835 5835 5835 5834
5816 5817 5818 5820 5822 5823 5824 5825 5826 5827 5829 5828 5829 5829 5830 5830 5831 5831 5831 5831 5831 5831 5830 5830 5830 5830 5830 5830 5830 5830 5831 5831 5831 5831 5832 5832 5832 5832 5832 5832 5832 5832 5832 5831
5808 5811 5811 5816 5816 5817 5818 5819 5820 5821 5822 5823 5824 5825 5825 5826 5826 5827 5827 5827 5827 5827 5827 5827 5827 5827 5827 5827 5827 5827 5828 5828 5828 5828 5829 5829 5829 5829 5829 5829 5829 5829 5829 5828
5801 5802 5804 5808 5809 5810 5811 5813 5815 5815 5817 5818 5819 5820 5821 5821 5822 5822 5823 5823 5823 5823 5824 5823 5823 5823 5823 5824 5824 5824 5824 5825 5825 5825 5826 5826 5826 5826 5826 5826 5826 5825 5825 5824
5793 5794 5796 5801 5802 5803 5805 5806 5809 5809 5810 5811 5813 5814 5816 5816 5816 5817 5818 5818 5819 5819 5819 5820 5820 5819 5820 5820 5820 5820 5821 5821 5821 5822 5822 5822 5823 5823 5822 5822 5822 5822 5821 5821
5786 5786 5789 5793 5794 5796 5799 5801 5801 5802 5803 5805 5806 5808 5810 5810 5811 5812 5813 5813 5814 5814 5815 5815 5815 5815 5815 5815 5816 5816 5816 5817 5817 5817 5818 5818 5818 5819 5818 5818 5818 5817 5817 5816
5778 5779 5784 5785 5786 5788 5790 5791 5793 5794 5796 5798 5799 5801 5803 5804 5805 5806 5807 5808 5808 5809 5809 5810 5810 5810 5810 5811 5811 5811 5812 5812 5812 5813 5813 5814 5814 5814 5814 5814 5813 5813 5812 5812
5771 5774 5776 5777 5778 5779 5781 5783 5785 5787 5789 5790 5792 5794 5796 5797 5798 5799 5800 5801 5802 5803 5803 5804 5804 5804 5805 5805 5806 5806 5807 5807 5808 5808 5808 5808 5809 5808 5808 5808 5808 5807 5807 5806
5762 5765 5767 5768 5769 5770 5772 5774 5776 5778 5780 5783 5784 5786 5788 5790 5791 5792 5793 5794 5795 5796 5797 5797 5798 5798 5799 5799 5800 5800 5801 5801 5802 5802 5802 5803 5803 5802 5802 5802 5802 5801 5801 5800
5752 5755 5757 5759 5760 5762 5763 5765 5768 5770 5772 5774 5776 5778 5780 5781 5783 5784 5785 5787 5788 5788 5789 5791 5791 5792 5792 5793 5794 5794 5795 5795 5796 5796 5796 5796 5796 5796 5796 5796 5795 5795 5794 5793
5744 5746 5747 5750 5751 5752 5754 5756 5759 5761 5763 5765 5767 5770 5771 5773 5774 5776 5777 5778 5779 5780 5782 5783 5784 5785 5785 5786 5787 5787 5788 5788 5789 5789 5789 5789 5789 5789 5788 5788 5788 5787 5787 5786
5734 5736 5737 5739 5740 5742 5744 5747 5749 5752 5754 5756 5758 5760 5762 5764 5766 5767 5768 5769 5771 5772 5774 5775 5776 5777 5778 5779 5779 5780 5781 5781 5781 5781 5782 5782 5782 5781 5781 5781 5780 5779 5779 5778
5724 5725 5727 5729 5731 5732 5734 5737 5739 5742 5744 5747 5749 5751 5753 5755 5757 5758 5759 5760 5762 5763 5765 5766 5768 5769 5770 5770 5771 5772 5772 5773 5773 5774 5774 5774 5774 5773 5773 5773 5772 5771 5771 5770
5714 5716 5718 5719 5721 5723 5725 5727 5730 5732 5735 5737 5739 5741 5744 5745 5747 5749 5750 5751 5752 5754 5755 5757 5759 5760 5761 5762 5763 5763 5764 5764 5765 5765 5765 5765 5765 5765 5764 5764 5763 5763 5762 5761
5704 5706 5708 5710 5712 5714 5716 5718 5720 5723 5725 5727 5729 5732 5734 5736 5737 5739 5740 5742 5743 5745 5746 5748 5749 5751 5752 5753 5754 5754 5755 5755 5756 5756 5756 5756 5756 5755 5755 5754 5754 5753 5752 5751
5695 5697 5699 5701 5703 5705 5707 5709 5711 5713 5715 5717 5719 5721 5723 5726 5728 5729 5731 5732 5734 5735 5737 5738 5740 5741 5742 5743 5744 5745 5745 5746 5746 5746 5746 5746 5746 5746 5745 5744 5744 5743 5742 5741
5686 5688 5690 5692 5694 5695 5697 5699 5701 5703 5705 5707 5709 5711 5713 5716 5718 5720 5721 5722 5724 5726 5727 5729 5730 5731 5733 5734 5735 5735 5736 5736 5737 5736 5736 5736 5736 5736 5735 5734 5734 5733 5732 5730
5677 5679 5680 5682 5684 5685 5687 5689 5691 5693 5695 5697 5699 5701 5703 5705 5707 5709 5710 5712 5714 5715 5717 5719 5720 5721 5722 5723 5724 5725 5726 5726 5726 5726 5726 5726 5726 5725 5725 5724 5723 5722 5721 5720
5668 5670 5671 5673 5674 5676 5677 5679 5681 5683 5685 5686 5688 5690 5692 5694 5696 5698 5699 5701 5703 5705 5707 5708 5709 5711 5712 5713 5714 5715 5715 5716 5716 5716 5716 5716 5715 5715 5714 5713 5713 5712 5710 5709
5659 5661 5662 5663 5665 5666 5667 5669 5671 5673 5674 5676 5678 5679 5681 5683 5685 5686 5688 5691 5693 5694 5696 5697 5699 5700 5701 5702 5703 5704 5704 5705 5705 5706 5705 5705 5704 5704 5703 5702 5701 5700 5699 5698
5651 5652 5653 5654 5655 5657 5658 5659 5661 5663 5664 5666 5667 5669 5670 5672 5674 5675 5677 5680 5682 5683 5684 5686 5688 5689 5690 5691 5692 5693 5693 5694 5694 5694 5694 5694 5693 5692 5692 5691 5690 5689 5688 5686
5642 5643 5644 5645 5646 5647 5648 5650 5651 5653 5654 5656 5657 5659 5660 5662 5663 5665 5667 5669 5670 5672 5674 5675 5677 5678 5679 5679 5680 5681 5681 5682 5683 5683 5683 5682 5682 5681 5680 5679 5678 5677 5676 5674
5633 5634 5634 5635 5636 5638 5639 5640 5641 5642 5644 5646 5647 5649 5650 5651 5653 5654 5656 5657 5659 5661 5662 5664 5665 5666 5667 5667 5668 5669 5670 5670 5671 5671 5671 5671 5670 5669 5668 5667 5666 5665 5664 5663
5624 5625 5625 5626 5627 5628 5630 5631 5631 5633 5634 5636 5637 5638 5640 5641 5643 5644 5645 5646 5648 5649 5651 5652 5653 5654 5655 5655 5656 5657 5658 5658 5659 5659 5659 5659 5658 5657 5657 5656 5655 5654 5652 5651
5615 5616 5616 5617 5617 5619 5620 5621 5622 5623 5624 5626 5627 5628 5629 5630 5632 5633 5634 5635 5637 5638 5639 5641 5641 5642 5643 5644 5644 5645 5646 5646 5646 5647 5647 5647 5646 5646 5645 5644 5643 5642 5641 5640
5606 5607 5607 5608 5608 5609 5610 5611 5612 5613 5614 5616 5617 5618 5618 5620 5621 5622 5623 5624 5625 5627 5628 5629 5630 5631 5632 5632 5633 5633 5634 5634 5635 5635 5635 5635 5634 5634 5633 5632 5631 5630 5629 5628